Вернуться в каталог

STARLINK-30379

АктивенСвязьVLEO
NORAD 57811·PAYLOAD·🇺🇸 United States

Запущен Sep 9, 2023 с Cape Canaveral Space Force Station

Loading…

Ближайшие Пролёты (ближайшие 24 часа)

TLE

СвежийSource: CelesTrak SupGP

Эпоха: Sep 14, 2026, 21:23 UTC

1 57811C 23138D   26257.89145833  .00039470  00000+0  14297-2 0  2576
2 57811  43.0021 245.6354 0001306 264.6908 134.5212 15.27555706    10

Отслеживайте STARLINK-30379 в реальном времени с AllMySat

Download on the App Store